| time (UTC) | temp F | wind direction | speed MPH | gust MPH | rain 1hr in | rain 24hr in | rain mn in | humidity % | barometer mb |
| 20260904075846 | 79 | 126 | 0.0 | 0.0 | 0.00 | 0.00 | 0.00 | 66 | 1013.3 |
| 20260904075342 | 79 | 126 | 0.0 | 0.0 | 0.00 | 0.00 | 0.00 | 66 | 1013.4 |
| 20260904074840 | 79 | 126 | 0.0 | 0.0 | 0.00 | 0.00 | 0.00 | 66 | 1013.3 |
| 20260904074335 | 79 | 125 | 0.0 | 0.0 | 0.00 | 0.00 | 0.00 | 65 | 1013.3 |
| 20260904073831 | 79 | 125 | 0.0 | 0.0 | 0.00 | 0.00 | 0.00 | 65 | 1013.3 |
| 20260904073326 | 79 | 126 | 0.0 | 0.0 | 0.00 | 0.00 | 0.00 | 65 | 1013.3 |
| 20260904072822 | 79 | 126 | 0.0 | 0.0 | 0.00 | 0.00 | 0.00 | 65 | 1013.2 |
| 20260904072321 | 80 | 126 | 0.0 | 0.0 | 0.00 | 0.00 | 0.00 | 64 | 1013.2 |
| 20260904071817 | 80 | 126 | 0.0 | 0.0 | 0.00 | 0.00 | 0.00 | 63 | 1013.5 |
| 20260904071312 | 80 | 126 | 0.0 | 0.0 | 0.00 | 0.00 | 0.00 | 63 | 1013.5 |
| 20260904070807 | 81 | 127 | 1.0 | 1.0 | 0.00 | 0.00 | 0.00 | 62 | 1013.4 |
| 20260904070306 | 81 | 137 | 1.0 | 1.0 | 0.00 | 0.00 | 0.00 | 61 | 1013.4 |
| 20260904065801 | 81 | 145 | 1.0 | 0.0 | 0.00 | 0.00 | 0.00 | 60 | 1013.5 |
| 20260904065257 | 81 | 186 | 0.0 | 0.0 | 0.00 | 0.00 | 0.00 | 60 | 1013.4 |
| 20260904064757 | 81 | 201 | 0.0 | 0.0 | 0.00 | 0.00 | 0.00 | 60 | 1013.5 |
| 20260904064253 | 82 | 201 | 0.0 | 0.0 | 0.00 | 0.00 | 0.00 | 60 | 1013.5 |
| 20260904063749 | 82 | 195 | 1.0 | 1.0 | 0.00 | 0.00 | 0.00 | 59 | 1013.4 |
| 20260904063244 | 82 | 220 | 2.0 | 2.0 | 0.00 | 0.00 | 0.00 | 59 | 1013.5 |
| 20260904062740 | 82 | 196 | 1.0 | 1.0 | 0.00 | 0.00 | 0.00 | 59 | 1013.6 |
| 20260904062236 | 82 | 241 | 3.0 | 3.0 | 0.00 | 0.00 | 0.00 | 59 | 1013.5 |
| 20260904061731 | 81 | 177 | 2.0 | 3.0 | 0.00 | 0.00 | 0.00 | 59 | 1013.3 |
| 20260904061227 | 81 | 149 | 2.0 | 2.0 | 0.00 | 0.00 | 0.00 | 60 | 1013.6 |
| 20260904060724 | 80 | 87 | 0.0 | 0.0 | 0.00 | 0.00 | 0.00 | 61 | 1013.5 |
| 20260904060219 | 80 | 86 | 1.0 | 1.0 | 0.00 | 0.00 | 0.00 | 61 | 1013.5 |
| 20260904055714 | 80 | 85 | 0.0 | 0.0 | 0.00 | 0.00 | 0.00 | 61 | 1013.2 |
| 20260904055209 | 80 | 73 | 0.0 | 1.0 | 0.00 | 0.00 | 0.00 | 61 | 1013.4 |
| 20260904054704 | 80 | 82 | 0.0 | 0.0 | 0.00 | 0.00 | 0.00 | 62 | 1013.2 |
| 20260904054201 | 81 | 57 | 0.0 | 0.0 | 0.00 | 0.00 | 0.00 | 61 | 1013.2 |
| 20260904053655 | 81 | 57 | 0.0 | 0.0 | 0.00 | 0.00 | 0.00 | 61 | 1013.2 |
| 20260904053150 | 81 | 57 | 0.0 | 0.0 | 0.00 | 0.00 | 0.00 | 60 | 1013.2 |
| 20260904052647 | 81 | 57 | 0.0 | 0.0 | 0.00 | 0.00 | 0.00 | 60 | 1013.3 |
| 20260904052142 | 82 | 68 | 1.0 | 1.0 | 0.00 | 0.00 | 0.00 | 59 | 1013.2 |
| 20260904051639 | 82 | 85 | 1.0 | 1.0 | 0.00 | 0.00 | 0.00 | 59 | 1013.2 |
| 20260904051139 | 82 | 104 | 0.0 | 0.0 | 0.00 | 0.00 | 0.00 | 58 | 1013.3 |
| 20260904050634 | 82 | 113 | 2.0 | 2.0 | 0.00 | 0.00 | 0.00 | 58 | 1013.4 |
| 20260904050125 | 82 | 117 | 2.0 | 2.0 | 0.00 | 0.00 | 0.00 | 58 | 1013.4 |
| 20260904045625 | 82 | 132 | 1.0 | 1.0 | 0.00 | 0.00 | 0.00 | 57 | 1013.3 |
| 20260904045119 | 82 | 124 | 1.0 | 1.0 | 0.00 | 0.00 | 0.00 | 58 | 1013.5 |
| 20260904044615 | 82 | 116 | 1.0 | 1.0 | 0.00 | 0.00 | 0.00 | 58 | 1013.4 |
| 20260904044111 | 82 | 121 | 0.0 | 0.0 | 0.00 | 0.00 | 0.00 | 57 | 1013.3 |
| 20260904043608 | 82 | 84 | 0.0 | 0.0 | 0.00 | 0.00 | 0.00 | 57 | 1013.3 |
| 20260904043103 | 82 | 116 | 1.0 | 2.0 | 0.00 | 0.00 | 0.00 | 57 | 1013.4 |
| 20260904042559 | 82 | 82 | 0.0 | 0.0 | 0.00 | 0.00 | 0.00 | 57 | 1013.4 |
| 20260904042054 | 83 | 101 | 3.0 | 3.0 | 0.00 | 0.00 | 0.00 | 56 | 1013.5 |
| 20260904041549 | 83 | 104 | 1.0 | 1.0 | 0.00 | 0.00 | 0.00 | 56 | 1013.5 |
| 20260904041045 | 83 | 98 | 3.0 | 5.0 | 0.00 | 0.00 | 0.00 | 55 | 1013.6 |
| 20260904040545 | 84 | 102 | 1.0 | 1.0 | 0.00 | 0.00 | 0.00 | 55 | 1013.4 |
| 20260904040042 | 84 | 126 | 2.0 | 3.0 | 0.00 | 0.00 | 0.00 | 54 | 1013.3 |
| 20260904035537 | 84 | 106 | 0.0 | 0.0 | 0.00 | 0.00 | 0.00 | 54 | 1013.3 |
| 20260904035037 | 84 | 127 | 4.0 | 5.0 | 0.00 | 0.00 | 0.00 | 54 | 1013.1 |
| 20260904034531 | 84 | 130 | 1.0 | 1.0 | 0.00 | 0.00 | 0.00 | 54 | 1013.3 |
| 20260904034027 | 84 | 100 | 0.0 | 0.0 | 0.00 | 0.00 | 0.00 | 55 | 1013.3 |
| 20260904033523 | 84 | 110 | 2.0 | 2.0 | 0.00 | 0.00 | 0.00 | 55 | 1013.2 |
| 20260904033020 | 84 | 107 | 0.0 | 1.0 | 0.00 | 0.00 | 0.00 | 55 | 1013.0 |
| 20260904032515 | 84 | 124 | 1.0 | 1.0 | 0.00 | 0.00 | 0.00 | 55 | 1013.1 |
| 20260904032014 | 84 | 104 | 1.0 | 1.0 | 0.00 | 0.00 | 0.00 | 54 | 1013.0 |
| 20260904031509 | 84 | 119 | 3.0 | 3.0 | 0.00 | 0.00 | 0.00 | 54 | 1012.9 |
| 20260904031005 | 84 | 83 | 3.0 | 3.0 | 0.00 | 0.00 | 0.00 | 54 | 1012.8 |
| 20260904030501 | 84 | 74 | 2.0 | 2.0 | 0.00 | 0.00 | 0.00 | 54 | 1012.8 |
| 20260904025955 | 84 | 68 | 1.0 | 2.0 | 0.00 | 0.00 | 0.00 | 55 | 1012.5 |
| 20260904025452 | 84 | 92 | 2.0 | 2.0 | 0.00 | 0.00 | 0.00 | 54 | 1012.7 |
| 20260904024951 | 84 | 124 | 0.0 | 1.0 | 0.00 | 0.00 | 0.00 | 54 | 1012.5 |
| 20260904024447 | 84 | 114 | 3.0 | 3.0 | 0.00 | 0.00 | 0.00 | 54 | 1012.4 |
| 20260904023943 | 84 | 118 | 1.0 | 1.0 | 0.00 | 0.00 | 0.00 | 54 | 1012.2 |
| 20260904023439 | 84 | 111 | 1.0 | 2.0 | 0.00 | 0.00 | 0.00 | 54 | 1012.2 |
| 20260904022938 | 84 | 49 | 2.0 | 2.0 | 0.00 | 0.00 | 0.00 | 54 | 1012.4 |
| 20260904022435 | 84 | 88 | 0.0 | 0.0 | 0.00 | 0.00 | 0.00 | 55 | 1012.1 |
| 20260904021931 | 84 | 115 | 1.0 | 1.0 | 0.00 | 0.00 | 0.00 | 54 | 1012.1 |
| 20260904021426 | 84 | 245 | 4.0 | 8.0 | 0.00 | 0.00 | 0.00 | 54 | 1012.1 |
| 20260904020921 | 84 | 172 | 2.0 | 3.0 | 0.00 | 0.00 | 0.00 | 54 | 1011.8 |
| 20260904020416 | 85 | 150 | 3.0 | 5.0 | 0.00 | 0.00 | 0.00 | 54 | 1011.9 |
| 20260904015914 | 85 | 183 | 4.0 | 5.0 | 0.00 | 0.00 | 0.00 | 54 | 1011.8 |
| 20260904015411 | 85 | 222 | 4.0 | 6.0 | 0.00 | 0.00 | 0.00 | 53 | 1011.9 |
| 20260904014909 | 85 | 245 | 6.0 | 8.0 | 0.00 | 0.00 | 0.00 | 53 | 1011.4 |
| 20260904014404 | 85 | 211 | 7.0 | 9.0 | 0.00 | 0.00 | 0.00 | 52 | 1011.5 |
| 20260904013900 | 85 | 248 | 3.0 | 5.0 | 0.00 | 0.00 | 0.00 | 52 | 1011.5 |
| 20260904013356 | 85 | 232 | 3.0 | 5.0 | 0.00 | 0.00 | 0.00 | 52 | 1011.5 |
| 20260904012852 | 86 | 239 | 6.0 | 7.0 | 0.00 | 0.00 | 0.00 | 51 | 1011.5 |
| 20260904012346 | 86 | 160 | 6.0 | 9.0 | 0.00 | 0.00 | 0.00 | 50 | 1011.2 |
| 20260904011845 | 86 | 190 | 7.0 | 8.0 | 0.00 | 0.00 | 0.00 | 49 | 1011.3 |
| 20260904011340 | 87 | 258 | 5.0 | 6.0 | 0.00 | 0.00 | 0.00 | 49 | 1011.1 |
| 20260904010835 | 87 | 243 | 5.0 | 7.0 | 0.00 | 0.00 | 0.00 | 48 | 1011.3 |
| 20260904010332 | 88 | 202 | 5.0 | 7.0 | 0.00 | 0.00 | 0.00 | 47 | 1011.0 |
| 20260904005827 | 89 | 223 | 4.0 | 7.0 | 0.00 | 0.00 | 0.00 | 46 | 1011.3 |
| 20260904005322 | 89 | 172 | 3.0 | 5.0 | 0.00 | 0.00 | 0.00 | 48 | 1011.2 |
| 20260904004817 | 89 | 226 | 4.0 | 5.0 | 0.00 | 0.00 | 0.00 | 47 | 1011.2 |
| 20260904004314 | 89 | 189 | 4.0 | 5.0 | 0.00 | 0.00 | 0.00 | 47 | 1011.3 |
| 20260904003808 | 89 | 191 | 6.0 | 7.0 | 0.00 | 0.00 | 0.00 | 46 | 1011.3 |
| 20260904003305 | 89 | 197 | 3.0 | 3.0 | 0.00 | 0.00 | 0.00 | 46 | 1011.2 |
| 20260904002759 | 90 | 201 | 2.0 | 2.0 | 0.00 | 0.00 | 0.00 | 46 | 1011.0 |
| 20260904002256 | 91 | 240 | 6.0 | 8.0 | 0.00 | 0.00 | 0.00 | 44 | 1011.1 |
| 20260904001755 | 91 | 264 | 0.0 | 0.0 | 0.00 | 0.00 | 0.00 | 43 | 1011.1 |
| 20260904001250 | 91 | 339 | 1.0 | 1.0 | 0.00 | 0.00 | 0.00 | 43 | 1011.1 |
| 20260904000745 | 90 | 296 | 0.0 | 0.0 | 0.00 | 0.00 | 0.00 | 44 | 1011.3 |
| 20260904000240 | 90 | 292 | 2.0 | 2.0 | 0.00 | 0.00 | 0.00 | 43 | 1011.4 |
| 20260903235739 | 90 | 320 | 1.0 | 1.0 | 0.00 | 0.00 | 0.00 | 42 | 1011.2 |
| 20260903235235 | 89 | 300 | 3.0 | 5.0 | 0.00 | 0.00 | 0.00 | 46 | 1011.2 |
| 20260903234734 | 89 | 291 | 1.0 | 2.0 | 0.00 | 0.00 | 0.00 | 47 | 1011.3 |
| 20260903234231 | 89 | 291 | 5.0 | 6.0 | 0.00 | 0.00 | 0.00 | 47 | 1011.1 |
| 20260903233727 | 89 | 301 | 4.0 | 6.0 | 0.00 | 0.00 | 0.00 | 46 | 1011.3 |
| 20260903233223 | 89 | 298 | 1.0 | 1.0 | 0.00 | 0.00 | 0.00 | 47 | 1011.3 |
| 20260903232721 | 88 | 224 | 3.0 | 3.0 | 0.00 | 0.00 | 0.00 | 48 | 1011.1 |
| 20260903232218 | 90 | 125 | 1.0 | 1.0 | 0.00 | 0.00 | 0.00 | 52 | 1011.1 |
| 20260903231716 | 91 | 257 | 4.0 | 5.0 | 0.00 | 0.00 | 0.00 | 41 | 1011.2 |
| 20260903231212 | 92 | 253 | 4.0 | 5.0 | 0.00 | 0.00 | 0.00 | 40 | 1011.2 |
| 20260903230708 | 92 | 290 | 1.0 | 1.0 | 0.00 | 0.00 | 0.00 | 41 | 1011.1 |
| 20260903230202 | 92 | 290 | 1.0 | 1.0 | 0.00 | 0.00 | 0.00 | 41 | 1011.0 |
| 20260903225658 | 92 | 294 | 2.0 | 2.0 | 0.00 | 0.00 | 0.00 | 41 | 1011.2 |
| 20260903225154 | 92 | 341 | 2.0 | 2.0 | 0.00 | 0.00 | 0.00 | 41 | 1011.5 |
| 20260903224650 | 92 | 350 | 1.0 | 1.0 | 0.00 | 0.00 | 0.00 | 40 | 1011.3 |
| 20260903224147 | 93 | 310 | 3.0 | 3.0 | 0.00 | 0.00 | 0.00 | 40 | 1011.2 |
| 20260903223641 | 94 | 291 | 2.0 | 2.0 | 0.00 | 0.00 | 0.00 | 38 | 1011.1 |
| 20260903223140 | 94 | 312 | 1.0 | 2.0 | 0.00 | 0.00 | 0.00 | 39 | 1011.2 |
| 20260903222635 | 93 | 357 | 1.0 | 1.0 | 0.00 | 0.00 | 0.00 | 39 | 1011.2 |
| 20260903222133 | 92 | 290 | 0.0 | 0.0 | 0.00 | 0.00 | 0.00 | 40 | 1011.1 |
| 20260903221629 | 93 | 295 | 2.0 | 3.0 | 0.00 | 0.00 | 0.00 | 39 | 1011.2 |
| 20260903221127 | 93 | 260 | 1.0 | 2.0 | 0.00 | 0.00 | 0.00 | 39 | 1011.1 |
| 20260903220626 | 93 | 133 | 1.0 | 1.0 | 0.00 | 0.00 | 0.00 | 38 | 1011.5 |
| 20260903220127 | 93 | 131 | 1.0 | 1.0 | 0.00 | 0.00 | 0.00 | 38 | 1011.5 |
| 20260903215625 | 93 | 215 | 5.0 | 5.0 | 0.00 | 0.00 | 0.00 | 37 | 1011.5 |
| 20260903215120 | 95 | 299 | 2.0 | 2.0 | 0.00 | 0.00 | 0.00 | 36 | 1011.6 |
| 20260903214619 | 96 | 253 | 3.0 | 2.0 | 0.00 | 0.00 | 0.00 | 35 | 1011.6 |
| 20260903214115 | 95 | 122 | 3.0 | 5.0 | 0.00 | 0.00 | 0.00 | 36 | 1011.5 |
| 20260903213610 | 94 | 255 | 3.0 | 3.0 | 0.00 | 0.00 | 0.00 | 36 | 1011.7 |
| 20260903213105 | 94 | 230 | 2.0 | 2.0 | 0.00 | 0.00 | 0.00 | 37 | 1011.8 |
| 20260903212601 | 95 | 239 | 5.0 | 5.0 | 0.00 | 0.00 | 0.00 | 36 | 1011.8 |
| 20260903212056 | 95 | 140 | 2.0 | 2.0 | 0.00 | 0.00 | 0.00 | 37 | 1011.9 |
| 20260903211551 | 94 | 253 | 3.0 | 3.0 | 0.00 | 0.00 | 0.00 | 37 | 1011.9 |
| 20260903211048 | 94 | 63 | 1.0 | 1.0 | 0.00 | 0.00 | 0.00 | 38 | 1011.8 |
| 20260903210542 | 94 | 123 | 0.0 | 0.0 | 0.00 | 0.00 | 0.00 | 37 | 1011.9 |
| 20260903210039 | 94 | 306 | 2.0 | 2.0 | 0.00 | 0.00 | 0.00 | 37 | 1012.0 |
| 20260903205538 | 94 | 280 | 3.0 | 3.0 | 0.00 | 0.00 | 0.00 | 38 | 1012.4 |
| 20260903205037 | 94 | 253 | 3.0 | 3.0 | 0.00 | 0.00 | 0.00 | 37 | 1012.2 |
| 20260903204534 | 95 | 301 | 3.0 | 3.0 | 0.00 | 0.00 | 0.00 | 37 | 1012.2 |
| 20260903204029 | 94 | 11 | 1.0 | 2.0 | 0.00 | 0.00 | 0.00 | 38 | 1012.2 |
| 20260903203525 | 93 | 53 | 1.0 | 1.0 | 0.00 | 0.00 | 0.00 | 40 | 1012.4 |
| 20260903203024 | 94 | 257 | 0.0 | 0.0 | 0.00 | 0.00 | 0.00 | 38 | 1012.5 |
| 20260903202520 | 94 | 329 | 1.0 | 2.0 | 0.00 | 0.00 | 0.00 | 39 | 1012.1 |
| 20260903202015 | 93 | 291 | 1.0 | 1.0 | 0.00 | 0.00 | 0.00 | 40 | 1012.6 |
| 20260903201510 | 92 | 15 | 0.0 | 0.0 | 0.00 | 0.00 | 0.00 | 40 | 1012.7 |
| 20260903201009 | 92 | 297 | 2.0 | 3.0 | 0.00 | 0.00 | 0.00 | 41 | 1013.1 |
| 20260903200504 | 92 | 114 | 1.0 | 1.0 | 0.00 | 0.00 | 0.00 | 41 | 1012.9 |
| 20260903195958 | 92 | 276 | 1.0 | 1.0 | 0.00 | 0.00 | 0.00 | 41 | 1013.1 |
| 20260903195455 | 93 | 175 | 1.0 | 1.0 | 0.00 | 0.00 | 0.00 | 40 | 1013.3 |
| 20260903194950 | 92 | 163 | 2.0 | 2.0 | 0.00 | 0.00 | 0.00 | 40 | 1013.4 |
| 20260903194445 | 93 | 198 | 2.0 | 2.0 | 0.00 | 0.00 | 0.00 | 41 | 1013.3 |
| 20260903193940 | 92 | 64 | 1.0 | 1.0 | 0.00 | 0.00 | 0.00 | 41 | 1013.3 |
| 20260903193437 | 91 | 160 | 3.0 | 3.0 | 0.00 | 0.00 | 0.00 | 41 | 1013.5 |
| 20260903192931 | 90 | 345 | 1.0 | 1.0 | 0.00 | 0.00 | 0.00 | 44 | 1013.6 |
| 20260903192428 | 90 | 239 | 0.0 | 0.0 | 0.00 | 0.00 | 0.00 | 43 | 1013.6 |
| 20260903191923 | 90 | 246 | 3.0 | 3.0 | 0.00 | 0.00 | 0.00 | 43 | 1013.6 |
| 20260903191420 | 90 | 250 | 2.0 | 2.0 | 0.00 | 0.00 | 0.00 | 44 | 1013.8 |
| 20260903190919 | 90 | 271 | 1.0 | 1.0 | 0.00 | 0.00 | 0.00 | 44 | 1013.9 |
| 20260903190413 | 90 | 202 | 1.0 | 1.0 | 0.00 | 0.00 | 0.00 | 43 | 1014.2 |
| 20260903185913 | 89 | 238 | 3.0 | 3.0 | 0.00 | 0.00 | 0.00 | 45 | 1014.2 |
| 20260903185408 | 89 | 251 | 1.0 | 3.0 | 0.00 | 0.00 | 0.00 | 44 | 1014.4 |
| 20260903184903 | 88 | 179 | 3.0 | 3.0 | 0.00 | 0.00 | 0.00 | 46 | 1014.5 |
| 20260903184400 | 88 | 228 | 1.0 | 2.0 | 0.00 | 0.00 | 0.00 | 46 | 1014.4 |
| 20260903183854 | 89 | 276 | 5.0 | 5.0 | 0.00 | 0.00 | 0.00 | 45 | 1014.4 |
| 20260903183349 | 88 | 181 | 1.0 | 1.0 | 0.00 | 0.00 | 0.00 | 46 | 1014.5 |
| 20260903182849 | 88 | 214 | 4.0 | 5.0 | 0.00 | 0.00 | 0.00 | 46 | 1014.5 |
| 20260903182348 | 88 | 253 | 4.0 | 5.0 | 0.00 | 0.00 | 0.00 | 45 | 1014.8 |
| 20260903181843 | 89 | 210 | 2.0 | 3.0 | 0.00 | 0.00 | 0.00 | 45 | 1014.7 |
| 20260903181338 | 88 | 143 | 0.0 | 0.0 | 0.00 | 0.00 | 0.00 | 46 | 1014.6 |
| 20260903180837 | 88 | 241 | 6.0 | 7.0 | 0.00 | 0.00 | 0.00 | 45 | 1014.8 |
| 20260903180332 | 89 | 246 | 3.0 | 3.0 | 0.00 | 0.00 | 0.00 | 46 | 1014.9 |
| 20260903175831 | 87 | 149 | 0.0 | 0.0 | 0.00 | 0.00 | 0.00 | 49 | 1014.9 |
| 20260903175331 | 87 | 184 | 4.0 | 5.0 | 0.00 | 0.00 | 0.00 | 48 | 1015.0 |
| 20260903174826 | 87 | 162 | 1.0 | 2.0 | 0.00 | 0.00 | 0.00 | 50 | 1014.9 |
| 20260903174321 | 87 | 195 | 2.0 | 2.0 | 0.00 | 0.00 | 0.00 | 48 | 1015.0 |
| 20260903173820 | 87 | 141 | 1.0 | 1.0 | 0.00 | 0.00 | 0.00 | 50 | 1015.4 |
| 20260903173316 | 86 | 175 | 1.0 | 1.0 | 0.00 | 0.00 | 0.00 | 51 | 1015.0 |
| 20260903172812 | 87 | 223 | 3.0 | 3.0 | 0.00 | 0.00 | 0.00 | 51 | 1015.3 |
| 20260903172307 | 87 | 121 | 1.0 | 2.0 | 0.00 | 0.00 | 0.00 | 50 | 1015.4 |
| 20260903171802 | 87 | 87 | 0.0 | 0.0 | 0.00 | 0.00 | 0.00 | 51 | 1015.3 |
| 20260903171258 | 87 | 190 | 2.0 | 3.0 | 0.00 | 0.00 | 0.00 | 50 | 1015.2 |
| 20260903170756 | 86 | 118 | 0.0 | 0.0 | 0.00 | 0.00 | 0.00 | 51 | 1015.2 |
| 20260903170252 | 86 | 93 | 0.0 | 0.0 | 0.00 | 0.00 | 0.00 | 53 | 1015.3 |
| 20260903165750 | 85 | 116 | 1.0 | 1.0 | 0.00 | 0.00 | 0.00 | 52 | 1015.0 |
| 20260903165245 | 85 | 101 | 1.0 | 1.0 | 0.00 | 0.00 | 0.00 | 53 | 1015.4 |
| 20260903164739 | 84 | 129 | 0.0 | 1.0 | 0.00 | 0.00 | 0.00 | 54 | 1015.3 |
| 20260903164236 | 85 | 125 | 2.0 | 2.0 | 0.00 | 0.00 | 0.00 | 54 | 1015.6 |
| 20260903163734 | 84 | 145 | 2.0 | 2.0 | 0.00 | 0.00 | 0.00 | 55 | 1015.4 |
| 20260903163231 | 84 | 93 | 1.0 | 1.0 | 0.00 | 0.00 | 0.00 | 54 | 1015.7 |
| 20260903162727 | 85 | 70 | 2.0 | 2.0 | 0.00 | 0.00 | 0.00 | 54 | 1015.3 |
| 20260903162223 | 84 | 137 | 1.0 | 1.0 | 0.00 | 0.00 | 0.00 | 54 | 1015.3 |
| 20260903161719 | 85 | 169 | 2.0 | 2.0 | 0.00 | 0.00 | 0.00 | 53 | 1015.3 |
| 20260903161214 | 85 | 132 | 0.0 | 0.0 | 0.00 | 0.00 | 0.00 | 52 | 1015.3 |
| 20260903160709 | 84 | 135 | 0.0 | 0.0 | 0.00 | 0.00 | 0.00 | 54 | 1015.2 |
| 20260903160208 | 84 | 109 | 1.0 | 1.0 | 0.00 | 0.00 | 0.00 | 54 | 1015.2 |
| 20260903155707 | 84 | 108 | 1.0 | 2.0 | 0.00 | 0.00 | 0.00 | 54 | 1015.6 |
| 20260903155202 | 84 | 96 | 0.0 | 0.0 | 0.00 | 0.00 | 0.00 | 56 | 1015.2 |
| 20260903154658 | 84 | 146 | 0.0 | 0.0 | 0.00 | 0.00 | 0.00 | 56 | 1015.3 |
| 20260903154154 | 83 | 146 | 0.0 | 0.0 | 0.00 | 0.00 | 0.00 | 57 | 1015.4 |
| 20260903153649 | 83 | 73 | 1.0 | 1.0 | 0.00 | 0.00 | 0.00 | 57 | 1015.5 |
| 20260903153145 | 82 | 356 | 0.0 | 0.0 | 0.00 | 0.00 | 0.00 | 58 | 1015.4 |
| 20260903152641 | 82 | 356 | 0.0 | 0.0 | 0.00 | 0.00 | 0.00 | 59 | 1015.4 |
| 20260903152137 | 82 | 356 | 0.0 | 0.0 | 0.00 | 0.00 | 0.00 | 60 | 1015.4 |
| 20260903151636 | 82 | 357 | 0.0 | 0.0 | 0.00 | 0.00 | 0.00 | 60 | 1015.5 |
| 20260903151131 | 82 | 358 | 1.0 | 1.0 | 0.00 | 0.00 | 0.00 | 59 | 1015.5 |
| 20260903150626 | 82 | 358 | 0.0 | 0.0 | 0.00 | 0.00 | 0.00 | 59 | 1015.3 |
| 20260903150121 | 82 | 358 | 0.0 | 0.0 | 0.00 | 0.00 | 0.00 | 60 | 1015.5 |
| 20260903145620 | 81 | 358 | 0.0 | 0.0 | 0.00 | 0.00 | 0.00 | 61 | 1015.2 |
| 20260903145115 | 81 | 358 | 1.0 | 1.0 | 0.00 | 0.00 | 0.00 | 62 | 1015.4 |
| 20260903144614 | 80 | 296 | 0.0 | 0.0 | 0.00 | 0.00 | 0.00 | 63 | 1015.5 |
| 20260903144111 | 80 | 320 | 1.0 | 1.0 | 0.00 | 0.00 | 0.00 | 62 | 1015.0 |
| 20260903143607 | 80 | 303 | 1.0 | 1.0 | 0.00 | 0.00 | 0.00 | 62 | 1015.4 |
| 20260903143102 | 80 | 298 | 0.0 | 0.0 | 0.00 | 0.00 | 0.00 | 61 | 1015.4 |
| 20260903142557 | 80 | 332 | 1.0 | 1.0 | 0.00 | 0.00 | 0.00 | 60 | 1015.4 |
| 20260903142054 | 80 | 252 | 1.0 | 2.0 | 0.00 | 0.00 | 0.00 | 60 | 1015.2 |
| 20260903141549 | 80 | 278 | 1.0 | 1.0 | 0.00 | 0.00 | 0.00 | 60 | 1015.3 |
| 20260903141044 | 80 | 288 | 1.0 | 1.0 | 0.00 | 0.00 | 0.00 | 59 | 1015.2 |
| 20260903140540 | 80 | 288 | 0.0 | 0.0 | 0.00 | 0.00 | 0.00 | 59 | 1015.2 |
| 20260903140035 | 80 | 287 | 0.0 | 0.0 | 0.00 | 0.00 | 0.00 | 59 | 1015.2 |
| 20260903135530 | 80 | 295 | 0.0 | 0.0 | 0.00 | 0.00 | 0.00 | 61 | 1015.3 |
| 20260903135025 | 80 | 295 | 0.0 | 0.0 | 0.00 | 0.00 | 0.00 | 62 | 1015.4 |
| 20260903134525 | 80 | 324 | 1.0 | 1.0 | 0.00 | 0.00 | 0.00 | 61 | 1015.0 |
| 20260903134021 | 79 | 335 | 1.0 | 1.0 | 0.00 | 0.00 | 0.00 | 62 | 1015.0 |
| 20260903133518 | 79 | 93 | 0.0 | 1.0 | 0.00 | 0.00 | 0.00 | 66 | 1015.0 |
| 20260903133013 | 78 | 92 | 0.0 | 0.0 | 0.00 | 0.00 | 0.00 | 68 | 1015.0 |
| 20260903132508 | 78 | 92 | 0.0 | 0.0 | 0.00 | 0.00 | 0.00 | 68 | 1015.0 |
| 20260903132003 | 78 | 93 | 0.0 | 0.0 | 0.00 | 0.00 | 0.00 | 69 | 1014.9 |
| 20260903131458 | 78 | 93 | 0.0 | 0.0 | 0.00 | 0.00 | 0.00 | 70 | 1014.8 |
| 20260903130956 | 78 | 93 | 0.0 | 0.0 | 0.00 | 0.00 | 0.00 | 68 | 1014.7 |
| 20260903130452 | 78 | 93 | 0.0 | 0.0 | 0.00 | 0.00 | 0.00 | 69 | 1014.7 |
| 20260903125951 | 78 | 93 | 0.0 | 0.0 | 0.00 | 0.00 | 0.00 | 68 | 1014.7 |
| 20260903125450 | 78 | 93 | 0.0 | 0.0 | 0.00 | 0.00 | 0.00 | 68 | 1014.6 |
| 20260903124945 | 78 | 93 | 0.0 | 0.0 | 0.00 | 0.00 | 0.00 | 67 | 1014.6 |
| 20260903124440 | 78 | 93 | 0.0 | 0.0 | 0.00 | 0.00 | 0.00 | 67 | 1014.6 |
| 20260903123939 | 78 | 93 | 0.0 | 0.0 | 0.00 | 0.00 | 0.00 | 68 | 1014.5 |
| 20260903123434 | 78 | 93 | 0.0 | 0.0 | 0.00 | 0.00 | 0.00 | 67 | 1014.4 |
| 20260903122932 | 78 | 93 | 0.0 | 0.0 | 0.00 | 0.00 | 0.00 | 66 | 1014.3 |
| 20260903122427 | 79 | 93 | 0.0 | 0.0 | 0.00 | 0.00 | 0.00 | 66 | 1014.3 |
| 20260903121925 | 79 | 93 | 0.0 | 0.0 | 0.00 | 0.00 | 0.00 | 66 | 1014.2 |
| 20260903121421 | 78 | 93 | 0.0 | 0.0 | 0.00 | 0.00 | 0.00 | 66 | 1014.4 |
| 20260903120917 | 78 | 92 | 0.0 | 0.0 | 0.00 | 0.00 | 0.00 | 67 | 1014.3 |
| 20260903120416 | 78 | 92 | 0.0 | 0.0 | 0.00 | 0.00 | 0.00 | 67 | 1014.3 |
| 20260903115915 | 79 | 92 | 0.0 | 0.0 | 0.00 | 0.00 | 0.00 | 67 | 1014.0 |
| 20260903115414 | 79 | 92 | 0.0 | 0.0 | 0.00 | 0.00 | 0.00 | 66 | 1014.0 |
| 20260903114909 | 79 | 92 | 0.0 | 0.0 | 0.00 | 0.00 | 0.00 | 66 | 1013.8 |
| 20260903114405 | 79 | 92 | 0.0 | 0.0 | 0.00 | 0.00 | 0.00 | 66 | 1014.0 |
| 20260903113901 | 79 | 92 | 0.0 | 0.0 | 0.00 | 0.00 | 0.00 | 66 | 1014.0 |
| 20260903113356 | 79 | 97 | 1.0 | 1.0 | 0.00 | 0.00 | 0.00 | 66 | 1014.1 |
| 20260903112852 | 79 | 103 | 0.0 | 0.0 | 0.00 | 0.00 | 0.00 | 66 | 1014.2 |
| 20260903112347 | 79 | 85 | 0.0 | 0.0 | 0.00 | 0.00 | 0.00 | 66 | 1014.0 |
| 20260903111846 | 79 | 92 | 0.0 | 0.0 | 0.00 | 0.00 | 0.00 | 65 | 1014.0 |
| 20260903111346 | 79 | 79 | 1.0 | 1.0 | 0.00 | 0.00 | 0.00 | 65 | 1014.2 |
| 20260903110842 | 79 | 73 | 1.0 | 1.0 | 0.00 | 0.00 | 0.00 | 65 | 1014.1 |
| 20260903110337 | 79 | 80 | 1.0 | 1.0 | 0.00 | 0.00 | 0.00 | 65 | 1014.2 |
| 20260903105832 | 79 | 85 | 1.0 | 1.0 | 0.00 | 0.00 | 0.00 | 66 | 1014.4 |
| 20260903105333 | 79 | 98 | 1.0 | 1.0 | 0.00 | 0.00 | 0.00 | 66 | 1013.9 |
| 20260903104832 | 79 | 92 | 0.0 | 1.0 | 0.00 | 0.00 | 0.00 | 66 | 1014.1 |
| 20260903104327 | 79 | 86 | 1.0 | 1.0 | 0.00 | 0.00 | 0.00 | 66 | 1014.1 |
| 20260903103824 | 79 | 79 | 2.0 | 2.0 | 0.00 | 0.00 | 0.00 | 66 | 1014.3 |
| 20260903103320 | 79 | 80 | 1.0 | 1.0 | 0.00 | 0.00 | 0.00 | 66 | 1014.2 |
| 20260903102815 | 79 | 78 | 1.0 | 1.0 | 0.00 | 0.00 | 0.00 | 66 | 1014.3 |
| 20260903102310 | 79 | 81 | 0.0 | 1.0 | 0.00 | 0.00 | 0.00 | 66 | 1014.3 |
| 20260903101809 | 79 | 83 | 0.0 | 0.0 | 0.00 | 0.00 | 0.00 | 66 | 1014.2 |
| 20260903101304 | 79 | 79 | 2.0 | 2.0 | 0.00 | 0.00 | 0.00 | 65 | 1014.3 |
| 20260903100759 | 79 | 84 | 1.0 | 1.0 | 0.00 | 0.00 | 0.00 | 66 | 1014.4 |
| 20260903100254 | 79 | 96 | 0.0 | 0.0 | 0.00 | 0.00 | 0.00 | 65 | 1014.1 |
| 20260903095751 | 79 | 104 | 1.0 | 1.0 | 0.00 | 0.00 | 0.00 | 65 | 1014.3 |
| 20260903095246 | 80 | 105 | 1.0 | 1.0 | 0.00 | 0.00 | 0.00 | 65 | 1014.2 |
| 20260903094741 | 80 | 116 | 0.0 | 0.0 | 0.00 | 0.00 | 0.00 | 65 | 1014.2 |
| 20260903094236 | 80 | 125 | 0.0 | 1.0 | 0.00 | 0.00 | 0.00 | 64 | 1014.3 |
| 20260903093731 | 80 | 123 | 0.0 | 0.0 | 0.00 | 0.00 | 0.00 | 64 | 1014.2 |
| 20260903093227 | 80 | 127 | 1.0 | 1.0 | 0.00 | 0.00 | 0.00 | 63 | 1014.2 |
| 20260903092726 | 80 | 124 | 1.0 | 1.0 | 0.00 | 0.00 | 0.00 | 63 | 1014.4 |
| 20260903092221 | 80 | 93 | 1.0 | 1.0 | 0.00 | 0.00 | 0.00 | 63 | 1014.4 |
| 20260903091720 | 80 | 117 | 1.0 | 1.0 | 0.00 | 0.00 | 0.00 | 63 | 1014.5 |
| 20260903091215 | 80 | 122 | 0.0 | 0.0 | 0.00 | 0.00 | 0.00 | 64 | 1014.3 |
| 20260903090710 | 80 | 122 | 0.0 | 0.0 | 0.00 | 0.00 | 0.00 | 63 | 1014.2 |
| 20260903090208 | 80 | 125 | 1.0 | 1.0 | 0.00 | 0.00 | 0.00 | 63 | 1014.2 |
| 20260903085707 | 80 | 122 | 0.0 | 0.0 | 0.00 | 0.00 | 0.00 | 63 | 1014.3 |
| 20260903085203 | 80 | 115 | 1.0 | 1.0 | 0.00 | 0.00 | 0.00 | 63 | 1014.3 |
| 20260903084700 | 80 | 109 | 0.0 | 0.0 | 0.00 | 0.00 | 0.00 | 63 | 1014.6 |
| 20260903084155 | 80 | 109 | 1.0 | 1.0 | 0.00 | 0.00 | 0.00 | 63 | 1014.4 |
| 20260903083652 | 80 | 98 | 0.0 | 1.0 | 0.00 | 0.00 | 0.00 | 63 | 1014.3 |
| 20260903083151 | 81 | 98 | 0.0 | 0.0 | 0.00 | 0.00 | 0.00 | 63 | 1014.3 |
| 20260903082645 | 81 | 126 | 1.0 | 1.0 | 0.00 | 0.00 | 0.00 | 62 | 1014.5 |
| 20260903082141 | 81 | 153 | 0.0 | 0.0 | 0.00 | 0.00 | 0.00 | 62 | 1014.3 |
| 20260903081636 | 81 | 154 | 0.0 | 0.0 | 0.00 | 0.00 | 0.00 | 62 | 1014.3 |
| 20260903081132 | 81 | 132 | 1.0 | 1.0 | 0.00 | 0.00 | 0.00 | 62 | 1014.3 |
| 20260903080628 | 81 | 125 | 0.0 | 0.0 | 0.00 | 0.00 | 0.00 | 62 | 1014.4 |
| 20260903080126 | 81 | 125 | 0.0 | 0.0 | 0.00 | 0.00 | 0.00 | 62 | 1014.6 |